Location: Roanoke
(37.2710°N, 79.9420°W)
Time: 12:00:38
(UTC-05:00)

Daily predictions for brighter satellites

Satellite Brightness Start Highest point End
(mag) Time Altitude Azimuth Time Altitude Azimuth Time Altitude Azimuth
CORIOLIS 4.1 17:53:29 10° SSE 17:58:49 80° ENE 18:04:11 10° N
Tiangong 1 1.4 17:57:36 10° W 17:59:57 37° NNW 18:02:17 10° NE
OAO 3 Rocket 4.0 17:55:53 10° SW 18:00:16 40° SSE 18:04:43 10° E
NOSS 3-3 (A) 4.0 17:55:27 10° SSW 18:01:22 70° ESE 18:07:49 10° NE
Cosmos 2154 Rocket 4.0 17:55:07 10° N 18:01:26 74° E 18:07:45 10° SSE
NOSS 3-3 (C) 4.0 17:55:34 10° SSW 18:01:28 69° ESE 18:07:55 10° NE
Cosmos 1300 4.2 17:59:41 10° NNE 18:02:11 17° ENE 18:04:42 10° ESE
CSL-04 Rocket 4.1 17:56:41 10° S 18:02:13 74° WSW 18:07:46 10° NNW
USA 116 4.0 18:00:21 10° NNE 18:04:28 81° ESE 18:09:08 10° S
Cosmos 2181 Rocket 4.3 17:59:39 10° SSE 18:05:49 50° E 18:12:01 10° NNE
ALOS 2.8 18:03:17 10° SE 18:07:31 36° ENE 18:11:46 10° N
SPOT 3 Rocket 4.2 18:05:37 10° SE 18:10:09 33° ENE 18:14:43 10° N
Cosmos 1626 4.2 18:09:47 10° E 18:10:06 10° E 18:10:06 10° E
Meteor 1-21 Rocket 4.4 18:04:39 10° S 18:10:21 58° E 18:16:10 10° NNE
Cosmos 1354 Rocket 4.1 18:05:33 10° N 18:10:48 60° ENE 18:16:02 10° SSE
Cosmos 2084 3.6 18:07:33 10° NNW 18:11:10 41° NE 18:14:51 10° SE
Cosmos 1943 Rocket 2.8 18:10:22 10° N 18:15:25 33° ENE 18:20:24 10° SE
MOS 1 4.4 18:11:43 10° SE 18:17:08 51° ENE 18:22:35 10° N
MTI 3.8 18:16:05 10° NNE 18:19:15 56° E 18:22:24 10° S
Ariane Rocket 3.7 18:14:37 10° S 18:19:34 57° WSW 18:24:34 10° NNW
SKYMED 2 3.5 18:16:00 10° NNE 18:20:21 72° ESE 18:24:40 10° S
Cosmos 1908 3.5 18:18:58 10° NNW 18:22:51 72° W 18:26:40 10° S
ERS-2 3.0 18:20:34 10° SE 18:23:43 28° ENE 18:26:54 10° NNE
Cosmos 1400 Rocket 2.8 18:21:01 10° S 18:24:56 58° E 18:28:57 10° NNE
YAOGAN 1 2.7 18:24:17 10° S 18:28:36 80° WSW 18:32:57 10° NNW
KORONAS-FOTON 4.5 18:30:08 10° SSW 18:33:53 56° W 18:37:38 10° N
H-2A R/B 3.6 18:30:47 10° SE 18:33:57 26° ENE 18:37:09 10° NNE
Cosmos 2218 Rocket 4.2 18:28:05 10° N 18:34:01 47° E 18:39:54 10° SSE
BREEZE-M R/B 4.2 18:31:12 10° WSW 18:35:21 61° NNW 18:47:13 14° NE
NOAA 12 4.0 18:30:54 10° SSE 18:36:02 64° ENE 18:41:14 10° N
FENGYUN 3A 3.6 18:31:05 10° SSE 18:36:23 71° ENE 18:41:43 10° N
SL-8 Rocket 4.0 18:31:04 10° N 18:37:11 61° E 18:43:18 10° SSE
Meteor 2-21 Rocket 4.4 18:31:18 10° N 18:37:27 87° E 18:43:30 10° S
Meteor 2-16 Rocket 4.4 18:31:35 10° N 18:37:40 72° E 18:43:45 10° SSE
Cosmos 1503 Rocket 4.3 18:33:10 10° NNW 18:38:29 74° WSW 18:43:49 10° S
CZ-4 R/B 3.5 18:42:16 10° SSW 18:46:00 32° W 18:49:49 10° NNW
Lacrosse 5 rocket 4.1 18:44:32 10° WNW 18:48:08 24° WSW 18:51:49 10° S
Cosmos 1959 Rocket 4.5 18:42:21 10° N 18:48:38 63° E 18:54:54 10° SSE
Cosmos 2098 Rocket 4.4 18:45:23 10° NNE 18:49:40 28° E 18:54:47 10° SE
Cosmos 1943 3.8 18:44:15 10° SW 18:49:45 57° WNW 18:55:18 10° NNE
GPS 2-05 Rocket1 4.3 18:49:28 10° W 18:52:06 27° SSW 18:53:43 17° SSE
Cosmos 44 3.6 18:55:37 10° S 18:59:30 35° ESE 18:59:39 35° ESE
EO 1 Del DPAF 3.8 18:56:19 10° N 19:00:05 57° WNW 19:03:50 10° SSW
Cosmos 1726 3.7 19:01:04 10° NNW 19:04:27 36° W 19:07:48 10° SSW
Cosmos 2221 3.8 19:02:30 10° NNW 19:06:38 43° W 19:10:47 10° SSW
Cosmos 1408 Rocket 3.4 19:02:31 10° S 19:06:48 69° E 19:08:58 28° NNE
COSMO-SKYMED 1 4.3 19:04:25 10° N 19:08:16 31° WNW 19:12:06 10° SW
Cosmos 44 Rocket 3.7 19:07:22 10° S 19:11:26 39° ESE 19:11:26 39° ESE
Cosmos 2366 rocket 4.0 19:10:35 10° N 19:16:52 86° W 19:23:03 10° S
Cosmos 968 Rocket 3.6 19:14:32 10° NNW 19:19:41 72° WSW 19:24:45 10° S
ATLAS 2AS CENTAUR R/B 3.4 19:17:33 10° NW 19:25:13 60° WSW 19:32:13 10° SSE
Cosmos 1315 Rocket 3.7 19:23:18 10° SSW 19:27:08 47° WNW 19:29:12 24° NNW
Nadezhda 3 Rocket 3.9 19:23:14 10° S 19:29:26 63° E 19:32:36 30° NNE
Cosmos 2369 Rocket 3.8 19:27:27 10° NW 19:32:30 34° WSW 19:37:33 10° SSW
Thor Agena Rocket 3.5 19:34:00 42° NNE 19:35:54 90° NNE 19:41:08 10° SSW
Meteor 1-27 4.1 19:35:21 10° N 19:41:04 81° E 19:46:50 10° S
Meteor 1-11 4.3 19:37:11 10° SSW 19:42:44 72° W 19:46:15 24° N
OAO 3 Rocket 3.4 19:38:50 10° W 19:43:01 62° SW 19:43:01 62° SW
Cosmos 1626 3.5 19:41:42 10° SSW 19:44:48 37° W 19:44:48 37° W
NOSS 3-4 (A) 3.8 19:40:39 10° NNW 19:47:40 61° NE 19:47:55 61° ENE
NOSS 3-4 (C) 3.8 19:40:45 10° NNW 19:47:46 60° NE 19:47:57 60° ENE
GEOS 3 Rocket 4.3 19:53:26 30° S 19:55:51 53° WSW 20:01:05 10° NW
Cosmos 1943 Rocket 3.9 19:54:13 10° NW 19:59:01 30° WSW 20:03:47 10° SSW
Cosmos 1656 Rocket 4.0 19:54:58 10° NNW 19:59:27 59° NW 19:59:27 59° NW
COSMOS 2406 3.9 19:59:55 10° SSW 20:03:47 45° SSW 20:03:47 45° SSW
